Torna al catalogo

STARLINK-36384

AttivoComunicazioniSSO
NORAD 67597·PAYLOAD·🇺🇸 United States

Lanciato Jan 29, 2026 da Vandenberg Space Force Base

Loading…

Prossimi Passaggi (prossime 24 ore)

TLE

AggiornatoSource: CelesTrak SupGP

Epoca: Sep 15, 2026, 03:32 UTC

1 67597C 26018J   26258.14770833  .00085760  00000+0  26569-2 0  2580
2 67597  97.2845 321.7350 0001002  87.0108 264.0370 15.33458821    12

Traccia STARLINK-36384 in tempo reale con AllMySat

Download on the App Store